EW0435 Weather Reports


Display with metric or nautical units.
time (UTC)temp
F
wind
direction
speed
MPH
gust
MPH
rain 1hr
in
rain 24hr
in
rain mn
in
humidity
%
barometer
mb
20260906144504 50 267 0.0 0.0 0.00 0.00 0.00 71 1018.5
20260906144004 50 267 0.0 0.0 0.00 0.00 0.00 71 1018.5
20260906143504 50 267 0.0 0.0 0.00 0.00 0.00 71 1018.6
20260906142504 49 267 0.0 0.0 0.00 0.00 0.00 72 1018.6
20260906142004 49 267 0.0 0.0 0.00 0.00 0.00 72 1018.7
20260906141504 48 267 0.0 0.0 0.00 0.00 0.00 72 1018.8
20260906141004 47 267 0.0 0.0 0.00 0.00 0.00 72 1018.7
20260906140504 47 267 0.0 0.0 0.00 0.00 0.00 72 1018.6
20260906135504 48 267 0.0 0.0 0.00 0.00 0.00 69 1018.6
20260906135004 48 259 0.0 0.0 0.00 0.00 0.00 68 1018.7
20260906134504 49 259 0.0 0.0 0.00 0.00 0.00 67 1018.6
20260906133503 49 263 0.0 0.0 0.00 0.00 0.00 68 1018.5
20260906133005 48 294 0.0 0.0 0.00 0.00 0.00 69 1018.6
20260906132504 48 294 0.0 0.0 0.00 0.00 0.00 69 1018.6
20260906132003 48 295 0.0 0.0 0.00 0.00 0.00 71 1018.6
20260906131503 47 296 0.0 0.0 0.00 0.00 0.00 71 1018.6
20260906131004 47 296 0.0 0.0 0.00 0.00 0.00 70 1018.6
20260906130504 47 296 0.0 0.0 0.00 0.00 0.00 70 1018.6
20260906125504 48 296 0.0 0.0 0.00 0.00 0.00 68 1018.7
20260906125004 49 296 0.0 0.0 0.00 0.00 0.00 67 1018.7
20260906124504 49 296 0.0 0.0 0.00 0.00 0.00 68 1018.6
20260906124004 48 296 0.0 0.0 0.00 0.00 0.00 69 1018.7
20260906123004 46 296 0.0 0.0 0.00 0.00 0.00 75 1018.9
20260906122504 45 296 0.0 0.0 0.00 0.00 0.00 76 1018.9
20260906122004 44 296 0.0 0.0 0.00 0.00 0.00 76 1019.0
20260906121504 45 296 0.0 0.0 0.00 0.00 0.00 75 1019.0
20260906120504 45 296 0.0 0.0 0.00 0.00 0.00 73 1019.1
20260906115503 47 296 0.0 0.0 0.00 0.00 0.00 70 1019.1
20260906115004 48 296 0.0 0.0 0.00 0.00 0.00 70 1019.1
20260906114504 48 296 0.0 0.0 0.00 0.00 0.00 69 1019.1
20260906114004 48 296 0.0 0.0 0.00 0.00 0.00 69 1019.1
20260906113504 48 296 0.0 0.0 0.00 0.00 0.00 68 1019.1
20260906113003 48 296 0.0 0.0 0.00 0.00 0.00 68 1019.0
20260906112003 49 296 0.0 0.0 0.00 0.00 0.00 67 1019.1
20260906111503 49 296 0.0 0.0 0.00 0.00 0.00 67 1019.0
20260906111004 49 296 0.0 0.0 0.00 0.00 0.00 67 1019.1
20260906110504 49 296 0.0 0.0 0.00 0.00 0.00 68 1019.1
20260906110004 48 296 0.0 0.0 0.00 0.00 0.00 69 1019.2
20260906105504 48 296 0.0 0.0 0.00 0.00 0.00 69 1019.1
20260906105004 48 296 0.0 0.0 0.00 0.00 0.00 69 1019.2
20260906104504 48 296 0.0 0.0 0.00 0.00 0.00 68 1019.2
20260906104004 49 296 0.0 0.0 0.00 0.00 0.00 67 1019.2
20260906103503 49 296 0.0 0.0 0.00 0.00 0.00 67 1019.2
20260906103003 49 296 0.0 0.0 0.00 0.00 0.00 67 1019.2
20260906102504 49 296 0.0 0.0 0.00 0.00 0.00 67 1019.3
20260906101504 49 296 0.0 0.0 0.00 0.00 0.00 67 1019.2
20260906101004 49 296 0.0 0.0 0.00 0.00 0.00 66 1019.3
20260906100504 50 296 0.0 0.0 0.00 0.00 0.00 65 1019.3
20260906100004 50 296 0.0 0.0 0.00 0.00 0.00 65 1019.3
20260906095504 50 296 0.0 0.0 0.00 0.00 0.00 65 1019.4
20260906094504 50 296 0.0 0.0 0.00 0.00 0.00 65 1019.5
20260906094004 50 296 0.0 0.0 0.00 0.00 0.00 65 1019.6
20260906093503 51 296 0.0 0.0 0.00 0.00 0.00 64 1019.7
20260906093004 51 296 0.0 0.0 0.00 0.00 0.00 64 1019.7
20260906092504 51 296 0.0 0.0 0.00 0.00 0.00 64 1019.7
20260906092004 51 296 0.0 0.0 0.00 0.00 0.00 64 1019.7
20260906091504 51 296 0.0 0.0 0.00 0.00 0.00 64 1019.8
20260906091004 51 296 0.0 0.0 0.00 0.00 0.00 64 1019.9
20260906090503 51 296 0.0 0.0 0.00 0.00 0.00 64 1019.9
20260906090004 51 296 0.0 0.0 0.00 0.00 0.00 64 1020.0
20260906085004 51 297 0.0 0.0 0.00 0.00 0.00 65 1019.9
20260906084504 51 297 0.0 0.0 0.00 0.00 0.00 65 1019.9
20260906084004 51 297 0.0 0.0 0.00 0.00 0.00 66 1019.9
20260906083504 50 297 0.0 0.0 0.00 0.00 0.00 67 1020.0
20260906083004 50 298 0.0 0.0 0.00 0.00 0.00 67 1019.9
20260906082004 50 296 0.0 0.0 0.00 0.00 0.00 67 1020.0
20260906081504 50 297 0.0 0.0 0.00 0.00 0.00 68 1020.0
20260906081004 50 296 0.0 0.0 0.00 0.00 0.00 68 1020.0
20260906080504 50 296 0.0 0.0 0.00 0.00 0.00 68 1020.0
20260906080004 50 294 0.0 0.0 0.00 0.00 0.00 67 1020.1
20260906075504 50 310 0.0 0.0 0.00 0.00 0.00 67 1020.1
20260906075004 51 321 0.0 0.0 0.00 0.00 0.00 67 1020.1
20260906074504 51 289 0.0 1.0 0.00 0.00 0.00 67 1020.2
20260906074004 50 284 0.0 1.0 0.00 0.00 0.00 69 1020.3
20260906073504 50 289 0.0 0.0 0.00 0.00 0.00 69 1020.4
20260906073004 50 286 0.0 0.0 0.00 0.00 0.00 69 1020.4
20260906072503 50 277 0.0 0.0 0.00 0.00 0.00 69 1020.4
20260906072004 50 297 0.0 0.0 0.00 0.00 0.00 69 1020.3
20260906071505 50 303 0.0 0.0 0.00 0.00 0.00 70 1020.2
20260906071004 50 298 0.0 0.0 0.00 0.00 0.00 71 1020.2
20260906070504 50 310 0.0 0.0 0.00 0.00 0.00 70 1020.0
20260906065504 50 309 0.0 0.0 0.00 0.00 0.00 69 1020.5
20260906065004 50 306 0.0 0.0 0.00 0.00 0.00 69 1020.4
20260906064504 50 311 0.0 0.0 0.00 0.00 0.00 69 1020.5
20260906064005 51 307 0.0 3.0 0.00 0.00 0.00 68 1020.4
20260906063504 51 308 0.0 0.0 0.00 0.00 0.00 68 1020.5
20260906063004 51 313 0.0 0.0 0.00 0.00 0.00 68 1020.7
20260906062504 51 313 0.0 0.0 0.00 0.00 0.00 68 1020.7
20260906062004 51 312 0.0 0.0 0.00 0.00 0.00 67 1020.6
20260906061504 52 305 0.0 0.0 0.00 0.00 0.00 67 1020.7
20260906061005 52 288 0.0 0.0 0.00 0.00 0.00 66 1020.9
20260906060504 52 285 0.0 0.0 0.00 0.00 0.00 67 1021.0
20260906055504 51 285 0.0 1.0 0.00 0.00 0.00 67 1020.9
20260906054504 51 314 0.0 0.0 0.00 0.00 0.00 67 1020.9
20260906054004 52 297 0.0 1.0 0.00 0.00 0.00 67 1021.0
20260906052504 52 296 0.0 0.0 0.00 0.00 0.00 66 1021.1
20260906052004 52 311 0.0 1.0 0.00 0.00 0.00 66 1021.1
20260906051504 52 301 0.0 1.0 0.00 0.00 0.00 68 1021.2
20260906051004 51 294 0.0 1.0 0.00 0.00 0.00 68 1021.2
20260906050504 51 290 0.0 1.0 0.00 0.00 0.00 69 1021.1
20260906050004 51 320 0.0 1.0 0.00 0.00 0.00 69 1021.0
20260906045504 51 319 0.0 0.0 0.00 0.00 0.00 69 1020.9
20260906044505 51 301 0.0 1.0 0.00 0.00 0.00 70 1021.1
20260906044004 51 301 0.0 1.0 0.00 0.00 0.00 70 1021.2
20260906043504 51 306 0.0 2.0 0.00 0.00 0.00 71 1021.2
20260906043004 51 302 0.0 1.0 0.00 0.00 0.00 71 1021.3
20260906042004 50 299 0.0 2.0 0.00 0.00 0.00 73 1021.4
20260906041504 50 303 0.0 1.0 0.00 0.00 0.00 73 1021.4
20260906041004 50 304 0.0 1.0 0.00 0.00 0.00 74 1021.3
20260906040504 50 309 0.0 1.0 0.00 0.00 0.00 74 1021.3
20260906040004 51 306 0.0 1.0 0.00 0.00 0.00 74 1021.4
20260906035504 51 311 0.0 1.0 0.00 0.00 0.00 74 1021.4
20260906034504 51 311 0.0 1.0 0.00 0.00 0.00 73 1021.3
20260906033004 51 311 0.0 1.0 0.00 0.00 0.00 73 1021.2
20260906032504 52 311 0.0 1.0 0.00 0.00 0.00 73 1021.2
20260906032004 52 310 0.0 1.0 0.00 0.00 0.00 72 1021.1
20260906031504 52 307 0.0 2.0 0.00 0.00 0.00 72 1021.1
20260906031005 52 308 0.0 2.0 0.00 0.00 0.00 71 1021.1
20260906030504 53 320 0.0 1.0 0.00 0.00 0.00 71 1021.1
20260906030004 53 319 0.0 1.0 0.00 0.00 0.00 71 1021.1
20260906025504 53 307 0.0 2.0 0.00 0.00 0.00 71 1021.1
20260906025004 53 307 0.0 2.0 0.00 0.00 0.00 71 1021.1
20260906024504 53 307 0.0 2.0 0.00 0.00 0.00 70 1021.1
20260906024004 53 310 0.0 1.0 0.00 0.00 0.00 70 1021.0
20260906023504 54 312 0.0 1.0 0.00 0.00 0.00 70 1021.0
20260906023004 54 304 0.0 3.0 0.00 0.00 0.00 69 1021.0
20260906022504 54 303 0.0 3.0 0.00 0.00 0.00 69 1021.0
20260906022004 55 311 0.0 3.0 0.00 0.00 0.00 68 1020.9
20260906021004 55 306 0.0 2.0 0.00 0.00 0.00 67 1020.9
20260906020503 56 309 0.0 3.0 0.00 0.00 0.00 66 1020.9
20260906020004 56 316 0.0 3.0 0.00 0.00 0.00 65 1020.9
20260906015005 57 311 1.0 3.0 0.00 0.00 0.00 63 1020.9
20260906014504 57 315 0.0 3.0 0.00 0.00 0.00 63 1020.9
20260906014004 57 312 0.0 3.0 0.00 0.00 0.00 64 1021.0
20260906013504 57 326 1.0 3.0 0.00 0.00 0.00 64 1021.0
20260906013004 57 316 1.0 6.0 0.00 0.00 0.00 63 1020.9
20260906012504 57 309 2.0 8.0 0.00 0.00 0.00 63 1020.9
20260906012004 57 304 2.0 8.0 0.00 0.00 0.00 63 1020.9
20260906011504 58 310 3.0 8.0 0.00 0.00 0.00 63 1020.9
20260906011004 58 307 2.0 12.0 0.00 0.00 0.00 63 1020.9
20260906010504 58 314 2.0 6.0 0.00 0.00 0.00 63 1020.9
20260906010004 58 304 1.0 3.0 0.00 0.00 0.00 62 1020.8
20260906005503 59 314 2.0 3.0 0.00 0.00 0.00 61 1020.8
20260906005005 59 319 1.0 7.0 0.00 0.00 0.00 61 1020.8
20260906004504 59 301 3.0 7.0 0.00 0.00 0.00 62 1020.7
20260906004004 59 312 3.0 8.0 0.00 0.00 0.00 62 1020.7
20260906003504 60 309 3.0 8.0 0.00 0.00 0.00 61 1020.6
20260906003004 60 319 2.0 12.0 0.00 0.00 0.00 61 1020.6
20260906002504 60 316 2.0 5.0 0.00 0.00 0.00 60 1020.6
20260906002004 60 315 3.0 7.0 0.00 0.00 0.00 61 1020.5
20260906001504 61 321 2.0 6.0 0.00 0.00 0.00 59 1020.5
20260906001004 61 309 3.0 9.0 0.00 0.00 0.00 58 1020.5
20260906000503 62 305 3.0 5.0 0.00 0.00 0.00 56 1020.5
20260906000004 63 310 2.0 5.0 0.00 0.00 0.00 53 1020.5
20260905235504 64 316 2.0 8.0 0.00 0.00 0.00 51 1020.4
20260905235004 65 314 2.0 7.0 0.00 0.00 0.00 49 1020.4
20260905234504 65 308 2.0 8.0 0.00 0.00 0.00 48 1020.4
20260905233504 66 311 2.0 10.0 0.00 0.00 0.00 46 1020.4
20260905233004 68 324 1.0 10.0 0.00 0.00 0.00 45 1020.3
20260905232504 69 332 0.0 3.0 0.00 0.00 0.00 43 1020.3
20260905232004 68 333 0.0 2.0 0.00 0.00 0.00 43 1020.2
20260905231504 68 342 0.0 3.0 0.00 0.00 0.00 43 1020.2
20260905231004 68 338 0.0 8.0 0.00 0.00 0.00 42 1020.2
20260905230504 69 334 0.0 2.0 0.00 0.00 0.00 39 1020.2
20260905230004 70 22 0.0 0.0 0.00 0.00 0.00 36 1020.2
20260905225504 70 50 0.0 0.0 0.00 0.00 0.00 37 1020.2
20260905225004 70 19 0.0 2.0 0.00 0.00 0.00 36 1020.3
20260905224504 70 42 0.0 0.0 0.00 0.00 0.00 37 1020.2
20260905224004 69 18 0.0 3.0 0.00 0.00 0.00 38 1020.3
20260905223504 68 135 0.0 0.0 0.00 0.00 0.00 39 1020.3
20260905223004 68 115 0.0 0.0 0.00 0.00 0.00 38 1020.4
20260905222504 68 76 0.0 0.0 0.00 0.00 0.00 40 1020.4
20260905222004 68 75 0.0 0.0 0.00 0.00 0.00 39 1020.3
20260905221504 67 72 0.0 0.0 0.00 0.00 0.00 41 1020.4
20260905221004 67 90 0.0 1.0 0.00 0.00 0.00 40 1020.4
20260905220004 68 84 0.0 2.0 0.00 0.00 0.00 39 1020.3
20260905215504 68 42 0.0 0.0 0.00 0.00 0.00 41 1020.4
20260905215004 67 54 0.0 1.0 0.00 0.00 0.00 41 1020.4
20260905214503 67 76 0.0 1.0 0.00 0.00 0.00 43 1020.4
20260905213503 68 124 1.0 3.0 0.00 0.00 0.00 38 1020.5
20260905212504 69 68 0.0 0.0 0.00 0.00 0.00 41 1020.5
20260905212004 68 17 0.0 2.0 0.00 0.00 0.00 41 1020.6
20260905211005 69 110 0.0 2.0 0.00 0.00 0.00 42 1020.7
20260905210504 67 69 0.0 0.0 0.00 0.00 0.00 42 1020.7
20260905210004 67 40 0.0 1.0 0.00 0.00 0.00 42 1020.7
20260905205503 67 69 0.0 1.0 0.00 0.00 0.00 45 1020.7
20260905205004 68 61 0.0 1.0 0.00 0.00 0.00 42 1020.8
20260905204504 67 30 0.0 0.0 0.00 0.00 0.00 45 1020.8
20260905204004 64 117 0.0 0.0 0.00 0.00 0.00 47 1020.8
20260905203504 64 103 0.0 0.0 0.00 0.00 0.00 47 1020.9
20260905203004 64 97 0.0 2.0 0.00 0.00 0.00 49 1020.9
20260905202505 64 98 0.0 2.0 0.00 0.00 0.00 49 1020.9
20260905202004 64 104 0.0 2.0 0.00 0.00 0.00 49 1020.9
20260905201504 63 60 0.0 2.0 0.00 0.00 0.00 52 1020.9
20260905201004 64 130 1.0 3.0 0.00 0.00 0.00 47 1021.0
20260905200503 64 80 0.0 2.0 0.00 0.00 0.00 50 1021.0
20260905195504 63 90 1.0 3.0 0.00 0.00 0.00 52 1021.2
20260905194504 63 135 0.0 3.0 0.00 0.00 0.00 51 1021.3
20260905194004 62 83 0.0 3.0 0.00 0.00 0.00 52 1021.3
20260905193503 63 139 0.0 3.0 0.00 0.00 0.00 52 1021.3
20260905193004 63 126 1.0 3.0 0.00 0.00 0.00 51 1021.3
20260905192504 64 168 1.0 3.0 0.00 0.00 0.00 49 1021.3
20260905192004 64 86 0.0 1.0 0.00 0.00 0.00 52 1021.4
20260905191504 63 94 1.0 3.0 0.00 0.00 0.00 52 1021.4
20260905191004 64 91 0.0 0.0 0.00 0.00 0.00 53 1021.4
20260905190504 63 62 1.0 3.0 0.00 0.00 0.00 54 1021.5
20260905190005 63 99 0.0 0.0 0.00 0.00 0.00 57 1021.5
20260905185003 62 135 1.0 3.0 0.00 0.00 0.00 53 1021.6
20260905184504 64 59 0.0 0.0 0.00 0.00 0.00 55 1021.6
20260905184004 62 32 0.0 0.0 0.00 0.00 0.00 53 1021.6
20260905183504 62 77 0.0 1.0 0.00 0.00 0.00 55 1021.7
20260905183004 61 61 0.0 2.0 0.00 0.00 0.00 57 1021.7
20260905182504 61 124 0.0 2.0 0.00 0.00 0.00 56 1021.7
20260905182004 61 61 0.0 0.0 0.00 0.00 0.00 60 1021.8
20260905181504 62 106 0.0 1.0 0.00 0.00 0.00 58 1021.8
20260905181004 61 96 0.0 0.0 0.00 0.00 0.00 61 1021.9
20260905180504 61 88 0.0 0.0 0.00 0.00 0.00 59 1021.8
20260905180004 61 93 0.0 0.0 0.00 0.00 0.00 59 1021.9
20260905175504 60 69 0.0 2.0 0.00 0.00 0.00 61 1021.9
20260905175004 60 124 0.0 0.0 0.00 0.00 0.00 58 1022.0
20260905174503 61 98 0.0 0.0 0.00 0.00 0.00 61 1021.9
20260905174004 60 77 0.0 0.0 0.00 0.00 0.00 62 1021.9
20260905173504 60 91 0.0 2.0 0.00 0.00 0.00 63 1021.9
20260905173004 59 123 0.0 0.0 0.00 0.00 0.00 61 1021.9
20260905172004 59 92 0.0 0.0 0.00 0.00 0.00 62 1021.9
20260905171004 61 101 0.0 1.0 0.00 0.00 0.00 59 1021.9
20260905165504 59 123 0.0 0.0 0.00 0.00 0.00 62 1021.8
20260905164004 58 92 0.0 0.0 0.00 0.00 0.00 65 1021.8
20260905163504 58 80 0.0 0.0 0.00 0.00 0.00 66 1021.8
20260905163004 58 80 0.0 0.0 0.00 0.00 0.00 69 1021.8
20260905162504 57 78 0.0 0.0 0.00 0.00 0.00 69 1021.8
20260905162004 57 76 0.0 0.0 0.00 0.00 0.00 68 1021.7
20260905161504 57 75 0.0 0.0 0.00 0.00 0.00 69 1021.7
20260905161004 56 75 0.0 0.0 0.00 0.00 0.00 70 1021.7
20260905160504 56 74 0.0 0.0 0.00 0.00 0.00 70 1021.7
20260905160004 56 69 0.0 0.0 0.00 0.00 0.00 70 1021.7
20260905155504 57 67 0.0 0.0 0.00 0.00 0.00 68 1021.7
20260905155004 58 45 0.0 0.0 0.00 0.00 0.00 67 1021.7
20260905154503 58 5 0.0 0.0 0.00 0.00 0.00 67 1021.6
20260905154004 58 275 0.0 0.0 0.00 0.00 0.00 66 1021.7
20260905153504 57 275 0.0 0.0 0.00 0.00 0.00 67 1021.7
20260905153004 56 275 0.0 0.0 0.00 0.00 0.00 70 1021.7
20260905152004 53 275 0.0 0.0 0.00 0.00 0.00 77 1021.8
20260905151503 52 275 0.0 0.0 0.00 0.00 0.00 78 1021.8
20260905150504 51 275 0.0 0.0 0.00 0.00 0.00 80 1021.9
20260905150004 51 273 0.0 0.0 0.00 0.00 0.00 79 1021.9